Location: Dittelbrunn
(50.0738°N, 10.2196°E)
Time: 17:25:05
(UTC+00:00)

USA 238 DEB - Pass Details

Date: 18 September 2020
Orbit: 1004 x 1208 km, 63.4° (Epoch: 28 October)

Event Time Altitude Azimuth Distance (km) Brightness Sun altitude
Rises 17:40:47 0° 312° (NW) 3,894 7.7 -3.3°
Reaches altitude 10° 17:43:34 10° 319° (NW) 2,966 6.8 -3.8°
Maximum altitude 17:50:19 44° 31° (NNE) 1,527 4.4 -4.8°
Drops below altitude 10° 17:57:21 10° 102° (ESE) 3,092 5.4 -5.9°
Enters shadow 17:58:13 - 105° (ESE) 3,380 5.6 -6.1°
